Lexington Weather

Lexington, Massachusetts, USA

44°F
4/22/2024 8:50am 
  • Lexington Conditions: Clear
  • Temperature: 43.5°F / 6.4°CWarmer 3.6°F than last hour.
  • Dew Point: 27.1°FDecreased 2.0°Fsince last hour.
  • Relative Humidity: 52%Decreased 13.0% since last hour.
  • Wind: Calm, 10-min avg: Calm, gust: None
  • Barometer: 29.96 in Steady
  • Visibility: 10 miles
  • Rain Today: 0.00 in
  •   

Regional Weather Roundup
for Boston, MA

        
000
ASUS41 KBOX 171710
RWRBOX

REGIONAL WEATHER ROUNDUP
NATIONAL WEATHER SERVICE BOSTON/NORTON MA
100 PM EDT WED APR 17 2024

NOTE:  "FAIR" INDICATES FEW OR NO CLOUDS BELOW 12,000 FEET WITH NO 
SIGNIFICANT WEATHER AND/OR OBSTRUCTIONS TO VISIBILITY.

MAZALL-171800-
EASTERN MASSACHUSETTS
  
CITY           SKY/WX    TMP DP  RH WIND       PRES   REMARKS
BOSTON         PTSUNNY   49  36  61 E12       30.19F                  
BEVERLY        MOSUNNY   48  35  60 SE13      30.19F                  
LAWRENCE       PTSUNNY   56  32  40 CALM      30.18F                  
BEDFORD        MOSUNNY   57  34  41 MISG      30.15F                  
NORWOOD        MOSUNNY   61  37  41 CALM      30.16F                  
MARSHFIELD     MOSUNNY   46  32  57 E9        30.20F                  
PLYMOUTH       MOSUNNY   55  36  48 NE10      30.17F                  
TAUNTON        MOSUNNY   60  36  40 MISG      30.16F                  
NEW BEDFORD    MOSUNNY   56  38  50 SE12      30.18F                  
$$

MAZALL-171800-
CAPE COD AND THE ISLANDS
  
CITY           SKY/WX    TMP DP  RH WIND       PRES   REMARKS
FALMOUTH       SUNNY     54  34  47 NE8       30.19F                  
HYANNIS        MOSUNNY   51  33  50 VRB6      30.18F                  
CHATHAM        NOT AVBL                                               
PROVINCETOWN   MOSUNNY   47  34  60 VRB7      30.22F                  
NANTUCKET      MOSUNNY   52  34  50 NE8       30.20F                  
MARTHAS VNYRD  MOSUNNY   55  37  50 SE9G17    30.18F                  
$$
 
MAZALL-171800-
CENTRAL AND WESTERN MASSACHUSETTS
  
CITY           SKY/WX    TMP DP  RH WIND       PRES   REMARKS
WORCESTER      MOSUNNY   59  34  39 SW8       30.14F                  
FITCHBURG      MOSUNNY   60  35  39 VRB3      30.15F                  
ORANGE         MOSUNNY   59  32  36 CALM      30.14F                  
SPRINGFIELD    NOT AVBL                                               
WESTFIELD      CLOUDY    60  34  37 SW5       30.15F                  
NORTH ADAMS    MOSUNNY   63  33  32 CALM      30.11F                  
PITTSFIELD     CLOUDY    59  32  36 SW5       30.11F                  
$$
 
RIZALL-171800-
RHODE ISLAND
  
CITY           SKY/WX    TMP DP  RH WIND       PRES   REMARKS
PROVIDENCE     PTSUNNY   56  40  55 SE13      30.19F                  
NEWPORT        PTSUNNY   50  39  66 S12       30.19F                  
BLOCK ISLAND   MOSUNNY   48  40  73 E13       30.21S                  
SMITHFIELD     MOSUNNY   58  34  40 CALM      30.16F                  
WESTERLY       CLOUDY    51  35  54 SE14      30.20F                  
$$
 
CTZALL-171800-
CONNECTICUT
  
CITY           SKY/WX    TMP DP  RH WIND       PRES   REMARKS
BRADLEY INTL   CLOUDY    62  35  36 SE8       30.15F                  
HARTFORD       CLOUDY    61  37  41 SW6       30.15F                  
PLAINVILLE     CLOUDY    60  33  37 VRB5      30.15F                  
BRIDGEPORT     CLOUDY    52  41  66 E16       30.18F                  
DANBURY        CLOUDY    58  34  40 SE12      30.15F                  
GROTON         CLOUDY    51  39  63 E13       30.19F                  
NEW HAVEN      CLOUDY    56  40  55 SE14      30.18F                  
CHESTER        PTSUNNY   55  32  41 E9        30.18F                  
MERIDEN        CLOUDY    59  32  36 S10       30.16F                  
WILLIMANTIC    CLOUDY    59  35  40 VRB6      30.15F                  
OXFORD         CLOUDY    55  36  48 S9        30.16F                  
$$

MEZ002-015-021-024-NHZ003-005-008-011-012-014-VTZ005-008-171800-
NORTHERN NEW ENGLAND
  
CITY           SKY/WX    TMP DP  RH WIND       PRES   REMARKS
PORTLAND ME    MOSUNNY   52  29  41 VRB6      30.18F                  
BANGOR ME      MOSUNNY   53  26  35 NW6       30.14F                  
CONCORD NH     PTSUNNY   56  30  37 MISG      30.15F                  
MANCHESTER NH  PTSUNNY   58  32  37 SE3       30.14F                  
NASHUA NH      MOSUNNY   57  34  41 VRB3      30.16F                  
PORTSMOUTH NH  PTSUNNY   52  29  40 SE12      30.17F                  
JAFFREY NH     MOSUNNY   60  32  34 CALM      30.13F                  
KEENE NH       MOSUNNY   58  33  39 NE8       30.14F                  
BURLINGTON VT  PTSUNNY   49  28  44 NW10      30.20F                  
MT. WASHINGTON PTSUNNY   27  16  63 N15         N/A  WCI  15          
$$

NYZ052-076-171800-
EASTERN NEW YORK
  
CITY           SKY/WX    TMP DP  RH WIND       PRES   REMARKS
ALBANY         PTSUNNY   61  34  36 CALM      30.15F                  
NEW YORK CITY  CLOUDY    55  42  61 NE14      30.14F                  
$$
 
ANZALL-171800-
MARINE OBSERVATIONS
  
STATION/POSITION TIME  TEMP    WIND        PRES    VSBY  WAVE
                       AIR SEA DIR/SP/G                  HT/PER
                 (UTC) (F)     (DEG/KT/KT) (MB)    (MI)  (FT/S)
BOSTON BUOY      1650   43     110/  8/ 10 1022.7F         2/ 8
BUZZARDS BAY     1600   45     140/ 11/ 12 1023.4F
NANTUCKET SOUND  1650   45 47  110/ 10/ 12 1022.5F         1/ 2
MASS BAY-STELLWA NOT AVBL
ISLE OF SHOALS   1600   42     130/  8/  9 1022.3F
S OF BLOCK IS    1656      45                N/A           3/ 9
$$

......................KEY.........................
  SKY/WX - SKY CONDITION/PRESENT WEATHER
  TMP    - TEMPERATURE IN FAHRENHEIT
  DWPT   - DEWPOINT IN FAHRENHEIT
  RH     - RELATIVE HUMIDITY IN PERCENT
  WIND   - DIRECTION AND SPEED IN MPH
  PRES   - MEAN SEA LEVEL PRESSURE IN INCHES OF HG
  WCI    - WIND CHILL INDEX
  VSB    - VISIBILITY IN MILES
  HX     - HEAT INDEX
  TC     - TEMPERATURE IN CELSIUS
  VRB    - VARIABLE WIND DIRECTION
  N/A    - NOT AVAILABLE
  
      

Other recent Regional Weather Roundups

Mon Apr 22, 8:10am EDT

Mon Apr 22, 7:10am EDT

Mon Apr 22, 6:10am EDT

Mon Apr 22, 5:10am EDT

Mon Apr 22, 4:10am EDT

Mon Apr 22, 3:10am EDT

Mon Apr 22, 2:10am EDT

Mon Apr 22, 1:10am EDT

Mon Apr 22, 12:10am EDT

Sun Apr 21, 11:10pm EDT

Sun Apr 21, 10:10pm EDT

Sun Apr 21, 9:10pm EDT

Sun Apr 21, 8:10pm EDT

Sun Apr 21, 7:10pm EDT

Sun Apr 21, 6:10pm EDT

Sun Apr 21, 5:10pm EDT

Sun Apr 21, 4:10pm EDT

Sun Apr 21, 3:10pm EDT

Sun Apr 21, 2:10pm EDT

Sun Apr 21, 1:10pm EDT

Sun Apr 21, 12:10pm EDT

Sun Apr 21, 11:10am EDT

Sun Apr 21, 10:10am EDT

Sun Apr 21, 9:10am EDT

Sun Apr 21, 8:10am EDT

Sun Apr 21, 7:10am EDT

Sun Apr 21, 6:10am EDT

Sun Apr 21, 5:10am EDT

Sun Apr 21, 4:10am EDT

Sun Apr 21, 3:10am EDT

Sun Apr 21, 2:10am EDT

Sun Apr 21, 1:10am EDT

Sun Apr 21, 12:10am EDT

Sat Apr 20, 11:10pm EDT

Sat Apr 20, 10:10pm EDT

Sat Apr 20, 9:10pm EDT

Sat Apr 20, 8:10pm EDT

Sat Apr 20, 7:10pm EDT

Sat Apr 20, 6:10pm EDT

Sat Apr 20, 5:10pm EDT

Sat Apr 20, 4:10pm EDT

Sat Apr 20, 3:10pm EDT

Sat Apr 20, 2:10pm EDT

Sat Apr 20, 1:10pm EDT

Sat Apr 20, 12:10pm EDT

Sat Apr 20, 11:10am EDT

Sat Apr 20, 10:10am EDT

Sat Apr 20, 9:10am EDT

Sat Apr 20, 8:10am EDT

Sat Apr 20, 7:10am EDT

Sat Apr 20, 6:10am EDT

Sat Apr 20, 5:10am EDT

Sat Apr 20, 4:10am EDT

Sat Apr 20, 3:10am EDT

Sat Apr 20, 2:10am EDT

Sat Apr 20, 1:10am EDT

Sat Apr 20, 12:10am EDT

Fri Apr 19, 11:10pm EDT

Fri Apr 19, 10:10pm EDT

Fri Apr 19, 9:10pm EDT

Fri Apr 19, 8:10pm EDT

Fri Apr 19, 7:10pm EDT

Fri Apr 19, 6:10pm EDT

Fri Apr 19, 5:10pm EDT

Fri Apr 19, 4:10pm EDT

Fri Apr 19, 3:10pm EDT

Fri Apr 19, 2:10pm EDT

Fri Apr 19, 1:10pm EDT

Fri Apr 19, 12:10pm EDT

Fri Apr 19, 11:10am EDT

Fri Apr 19, 10:10am EDT

Fri Apr 19, 9:10am EDT

Fri Apr 19, 8:10am EDT

Fri Apr 19, 7:10am EDT

Fri Apr 19, 6:10am EDT

Fri Apr 19, 5:10am EDT

Fri Apr 19, 4:10am EDT

Fri Apr 19, 3:10am EDT

Fri Apr 19, 2:10am EDT

Fri Apr 19, 1:10am EDT

Fri Apr 19, 12:10am EDT

Thu Apr 18, 11:10pm EDT

Thu Apr 18, 10:10pm EDT

Thu Apr 18, 9:10pm EDT

Thu Apr 18, 8:10pm EDT

Thu Apr 18, 7:10pm EDT

Thu Apr 18, 6:10pm EDT

Thu Apr 18, 5:10pm EDT

Thu Apr 18, 4:10pm EDT

Thu Apr 18, 3:10pm EDT

Thu Apr 18, 2:10pm EDT

Thu Apr 18, 1:10pm EDT

Thu Apr 18, 12:10pm EDT

Thu Apr 18, 11:10am EDT

Thu Apr 18, 10:10am EDT

Thu Apr 18, 9:10am EDT

Thu Apr 18, 8:10am EDT

Thu Apr 18, 7:10am EDT

Thu Apr 18, 6:10am EDT

Thu Apr 18, 5:10am EDT

Thu Apr 18, 4:10am EDT

Thu Apr 18, 3:10am EDT

Thu Apr 18, 2:10am EDT

Thu Apr 18, 1:10am EDT

Thu Apr 18, 12:10am EDT

Wed Apr 17, 11:10pm EDT

Wed Apr 17, 10:10pm EDT

Wed Apr 17, 9:10pm EDT

Wed Apr 17, 8:10pm EDT

Wed Apr 17, 7:10pm EDT

Wed Apr 17, 6:10pm EDT

Wed Apr 17, 5:10pm EDT

Wed Apr 17, 4:10pm EDT

Wed Apr 17, 3:10pm EDT

Wed Apr 17, 2:10pm EDT

Wed Apr 17, 12:10pm EDT

Wed Apr 17, 11:10am EDT

Wed Apr 17, 10:10am EDT

Wed Apr 17, 9:10am EDT

Wed Apr 17, 8:10am EDT

Wed Apr 17, 7:10am EDT

Wed Apr 17, 6:10am EDT

Wed Apr 17, 5:10am EDT

Wed Apr 17, 4:10am EDT

Wed Apr 17, 3:10am EDT

Wed Apr 17, 2:10am EDT

Wed Apr 17, 1:10am EDT

Wed Apr 17, 12:10am EDT

Tue Apr 16, 11:10pm EDT

Tue Apr 16, 10:10pm EDT

Tue Apr 16, 9:10pm EDT

Tue Apr 16, 8:10pm EDT

Tue Apr 16, 7:10pm EDT

Tue Apr 16, 6:10pm EDT

Tue Apr 16, 5:10pm EDT

Tue Apr 16, 4:10pm EDT

Tue Apr 16, 3:10pm EDT

Tue Apr 16, 2:10pm EDT

Tue Apr 16, 1:10pm EDT

Tue Apr 16, 12:10pm EDT

Tue Apr 16, 11:10am EDT

Tue Apr 16, 10:10am EDT

Tue Apr 16, 9:10am EDT

Tue Apr 16, 8:10am EDT

Tue Apr 16, 7:10am EDT

Tue Apr 16, 6:10am EDT

Tue Apr 16, 5:10am EDT

Tue Apr 16, 4:10am EDT

Tue Apr 16, 3:10am EDT

Tue Apr 16, 2:10am EDT

Tue Apr 16, 1:10am EDT

Tue Apr 16, 12:10am EDT

Mon Apr 15, 11:10pm EDT

Mon Apr 15, 10:10pm EDT

Mon Apr 15, 9:10pm EDT

Mon Apr 15, 8:10pm EDT

Mon Apr 15, 7:10pm EDT

Mon Apr 15, 6:10pm EDT

Mon Apr 15, 5:10pm EDT

Mon Apr 15, 4:10pm EDT

Mon Apr 15, 3:10pm EDT

Mon Apr 15, 2:10pm EDT

Mon Apr 15, 1:10pm EDT

Mon Apr 15, 12:10pm EDT

Mon Apr 15, 11:10am EDT

Mon Apr 15, 10:10am EDT

Mon Apr 15, 9:10am EDT